This demonstration page uses our WeatherBlox Daily Observations layout. Learn more.

Left ArrowRight Arrow

Hourly Observations for November 22, 2020

Temp ( °F °C ) Dew Point ( °F °C ) Humidity (%) Winds ( mph kmh ) Pressure ( in mb ) Visibility ( mi km ) Precip ( " mm )
12:54 am 00:54 Cloudy with Haze 41 5 36 2.2 82 82 Calm 30.38 1029 5 8.0467 0.001 0.001
1:54 am 01:54 Cloudy 41 5 35 1.7 79 79 SW 3 6 30.36 1028 10 16.0934 0 0
2:54 am 02:54 Cloudy 41 5 35 1.7 79 79 W 6 9 30.37 1029 10 16.0934 0 0
3:54 am 03:54 Cloudy 41 5 36 2.2 82 82 SW 3 6 30.37 1028 10 16.0934 0.001 0.001
4:54 am 04:54 Mostly Cloudy 41 5 36 2.2 82 82 SW 3 6 30.35 1028 10 16.0934 0 0
5:54 am 05:54 Clear 40 4.4 34 1.1 79 79 W 9 15 30.35 1028 10 16.0934 0 0
6:54 am 06:54 Clear 37 2.8 31 -0.6 79 79 NW 7 11 30.36 1028 10 16.0934 0 0
7:54 am 07:54 Sunny 36 2.2 29 -1.7 76 76 W 6 9 30.38 1029 10 16.0934 0 0
8:54 am 08:54 Sunny 38 3.3 28 -2.2 68 68 NW 8 13 30.4 1029 10 16.0934 0 0
9:54 am 09:54 Sunny 43 6.1 28 -2.2 56 56 NW 9 15 30.39 1029 10 16.0934 0 0
10:54 am 10:54 Sunny 45 7.2 28 -2.2 52 52 NW 15 24 30.4 1030 10 16.0934 0 0
11:54 am 11:54 Sunny 50 10 29 -1.7 44 44 NNW 15 24 30.37 1029 10 16.0934 0 0
12:54 pm 12:54 Sunny 51 10.6 27 -2.8 39 39 NW 16 26 30.36 1028 10 16.0934 0 0
1:54 pm 13:54 Sunny 52 11.1 25 -3.9 35 35 NW 12 19 30.34 1028 10 16.0934 0 0
2:54 pm 14:54 Sunny 53 11.7 22 -5.6 30 30 NW 17 28 30.34 1027 10 16.0934 0 0
3:54 pm 15:54 Sunny 52 11.1 22 -5.6 31 31 NNW 14 22 30.34 1027 10 16.0934 0 0
4:54 pm 16:54 Sunny 49 9.4 22 -5.6 35 35 NNW 7 11 30.35 1028 10 16.0934 0 0
5:54 pm 17:54 Clear 40 4.4 22 -5.6 49 49 Calm 30.35 1028 10 16.0934 0 0
6:54 pm 18:54 Clear 32 0 21 -6.1 64 64 Calm 30.38 1029 10 16.0934 0 0
7:54 pm 19:54 Clear 31 -0.6 20 -6.7 64 64 NNW 5 7 30.39 1029 10 16.0934 0 0
8:54 pm 20:54 Clear 28 -2.2 18 -7.8 66 66 Calm 30.39 1029 10 16.0934 0 0
9:54 pm 21:54 Clear 24 -4.4 17 -8.3 75 75 Calm 30.38 1029 10 16.0934 0 0
10:54 pm 22:54 Clear 22 -5.6 16 -8.9 78 78 Calm 30.39 1029 10 16.0934 0 0
11:54 pm 23:54 Clear 25 -3.9 18 -7.8 75 75 Calm 30.38 1029 10 16.0934 0 0

Powered by AerisWeather